www.pogodaiklimat.ru

Погода и климат >> Архив погоды >> Россия >> Астраханская область >> Досанг


ПОГОДА в Досанге

  • Прогноз погоды в Досанге
  • Монитор погоды в Досанге
  • Климат города

АРХИВ ПОГОДЫ в Досанге

Время (UTC), дата Ветер
(напр.,м/с)
 
Видим.   Явления Облачность Т
(С)
Тd
(С)
f
(%)
Тe
(С)
Тes
(С)
Комфортность P
(гПа)
Po
(гПа)
Тmin
(С)
Tmax
(С)
R
(мм)
R24
(мм)
S
(см)
21 20.06 З 2 10 км 10/0
[Ac und]
+20.5 +13.7 65 +24 +24 комфорт 1006.2 1008.3
00 21.06 З 3 10 км 5/0
[Ac trans]
+18.9 +13.1 69 +20 +20 1005.7 1007.8
03 21.06 З 2 20 км 8/3 600 м
[Cb cap Cc]
+19.3 +13.5 69 +21 +23 комфорт 1005.9 1008.0 +17.5
06 21.06 ЮЗ 2 20 км 9/1 600 м
[Cu hum Cc]
+23.8 +14.6 56 +26 +36 жарко 1006.2 1008.2
09 21.06 Ю 4 20 км 9/3 600 м
[Cu med, cong Ac As Cc]
+27.4 +13.0 41 +29 +34 жарко 1005.8 1007.9
12 21.06 Ю 3 20 км 10/3 600 м
[Cb cap Ac cuf Ci sp]
+28.2 +11.7 36 +29 +32 жарко 1005.0 1007.0
15 21.06 ЮЗ 2 20 км 10/3 600 м
[Cu med, cong Ac cuf Ci sp]
+26.7 +14.6 47 +29 +30 жарко 1004.5 1006.6 +28.3
18 21.06 ЮЗ 2 10 км 9/0
[Ac cuf Cc]
+22.5 +14.6 61 +26 +26 жарко 1005.3 1007.4
21 21.06 З 2 10 км 8/0
[Ci fib]
+23.1 +14.1 57 +27 +27 душно 1005.0 1007.1
00 22.06 ЮЗ 1 10 км 10/4 600 м
[Cu med, cong Ac cuf Ci fib]
+20.8 +15.5 72 +25 +25 комфорт 1004.7 1006.8
03 22.06 З 2 20 км 9/0
[Ac As Cc]
+22.1 +14.5 62 +25 +27 комфорт 1005.4 1007.5 +19.2
06 22.06 ЮЗ 2 20 км 4/0
[Ac cast Cc]
+27.3 +14.8 46 +30 +40 душно 1005.3 1007.3
09 22.06 ЮЗ 3 20 км 5/3 600 м
[Cb cap Ac cast Ci sp]
+31.1 +12.0 31 +32 +41 жарко 1004.6 1006.6
12 22.06 С 2
{12}
20 км в посл. час гроза {ливн. осадки} 8/4 600 м
[Cb cap Ac cuf Ci ing]
+27.2 +14.5 46 +30 +34 душно 1004.3 1006.3
15 22.06 ЮВ 1 20 км 9/8 600 м
[Cb cap Cc]
+26.4 +14.8 49 +29 +29 жарко 1005.8 1007.9 +31.8 0.5
18 22.06 ЮВ 3
{13}
10 км в посл. час гроза {ливн. осадки} 10/10 600 м
[Cb cap]
+18.6 +16.8 89 +20 +20 1007.9 1010.0
21 22.06 З 1 10 км 3/0
[Ci fib]
+19.0 +16.7 87 +22 +22 комфорт 1008.1 1010.2
00 23.06 СЗ 3 10 км 10/0
[Cs]
+18.9 +15.1 79 +20 +20 1009.0 1011.1
03 23.06 СЗ 3 20 км 9/4 600 м
[Sc diur, vesp Ac cast Ci fib]
+19.7 +11.3 58 +21 +22 комфорт 1010.8 1012.9 +17.6 10
06 23.06 СЗ 3 20 км 5/0
[Ci fib]
+24.6 +7.2 33 +25 +34 комфорт 1012.3 1014.4
09 23.06 З 4 20 км 3/3 600 м
[Cu med, cong Ci fib]
+25.9 +7.2 30 +26 +35 жарко 1012.8 1014.8
12 23.06 З 4 20 км 10/3 600 м
[Cu med, cong Cs]
+26.4 +6.3 28 +26 +30 жарко 1011.9 1014.0
15 23.06 ЮЗ 1 20 км 8/3 600 м
[Sc diur, vesp Ac lent Cc]
+26.5 +7.4 30 +26 +27 жарко 1011.5 1013.6 +26.9
18 23.06 Ю 2 10 км 6/3 300 м
[Sc diur, vesp Ac cuf Ci fib]
+22.0 +11.4 51 +24 +24 комфорт 1012.2 1014.3
21 23.06 Ю 2 10 км 8/0
[Ac trans]
+20.3 +11.5 57 +23 +23 комфорт 1011.8 1013.9
00 24.06 Ю 1 10 км ясно +17.7 +13.0 74 +19 +19 1010.9 1013.0
03 24.06 Ю 2 20 км 4/0
[Ci fib]
+19.6 +15.2 76 +22 +24 комфорт 1010.7 1012.8 +17.6
06 24.06 Ю 3 20 км 9/0
[Cc]
+24.0 +14.9 57 +27 +35 жарко 1009.6 1011.7
09 24.06 ЮЗ 5-10
{10}
20 км 10/4 600 м
[Cu med, cong Ac trans Cc]
+28.5 +9.4 30 +28 +31 жарко 1008.4 1010.5
12 24.06 ЮЗ 3
{10}
20 км 10/8 600 м
[Cb cap Ac cuf]
+27.3 +12.1 39 +29 +29 жарко 1006.7 1008.7
15 24.06 Ю 2 20 км 10/3 600 м
[Cb cap Ac cuf]
+24.2 +14.0 53 +27 +27 жарко 1006.4 1008.5 +28.5
18 24.06 ЮЗ 3
{16}
10 км слабый ливневой дождь 10/8 600 м
[Cb cap Ac cuf]
+21.4 +16.6 74 +25 +25 комфорт 1007.1 1009.2
21 24.06 З 3 10 км {ливн. осадки} 8/0
[Ac trans]
+20.5 +17.3 82 +24 +24 комфорт 1007.8 1009.9
00 25.06 СЗ 4 10 км {ливн. осадки} 10/0
[]
+17.7 +12.3 71 +17 +17 1008.6 1010.8
03 25.06 С 5 20 км 10/6 600 м
[Cb cap Ac cuf]
+15.4 +10.6 73 +14 +14 1010.6 1012.7 +15.4
06 25.06 С 3 20 км 10/0
[Ac cuf Ci sp]
+17.9 +9.6 58 +18 +22 1011.9 1014.0 +15.4
09 25.06 ЮЗ 1 10 км слабый ливневой дождь 10/5 600 м
[Cb cap Ac cuf]
+15.6 +12.7 83 +16 +20 1013.1 1015.2
12 25.06 Ю 2 20 км {ливн. осадки} 10/0
[Ac cast Cc]
+20.0 +12.4 62 +22 +30 комфорт 1013.0 1015.1
15 25.06 ЮЗ 2 20 км 3/1 600 м
[Sc diur, vesp Cc]
+22.2 +11.2 50 +24 +26 комфорт 1013.5 1015.6 +22.2 3
18 25.06 З 1 10 км ясно +17.6 +11.5 67 +19 +19 1015.1 1017.3
21 25.06 ЮЗ 1 10 км ясно +15.9 +12.7 81 +17 +17 1016.6 1018.7
00 26.06 З 1 10 км 3/0
[Ac lent]
+15.0 +12.2 83 +16 +16 1017.1 1019.3
03 26.06 З 1 20 км ясно +18.5 +12.3 67 +20 +23 1017.6 1019.7 +14.6
06 26.06 З 2 20 км ясно +24.1 +12.7 49 +26 +39 жарко 1018.2 1020.3
09 26.06 ЮЗ 2 20 км 1/1 600 м
[Cu hum]
+27.9 +8.5 30 +28 +45 жарко 1017.8 1019.9
12 26.06 Ю 2 20 км 8/1 600 м
[Cu hum Ci fib]
+29.0 +7.6 26 +28 +37 жарко 1017.0 1019.1
15 26.06 Ю 3 20 км 4/0
[Ci fib]
+28.2 +9.1 30 +28 +29 жарко 1016.7 1018.8 +29.8
18 26.06 Ю 3 10 км ясно +22.5 +13.0 55 +25 +25 комфорт 1017.3 1019.4
21 26.06 ЮЗ 2 10 км ясно +19.0 +14.0 73 +21 +21 комфорт 1017.3 1019.4
00 27.06 штиль 0 10 км ясно +16.7 +13.4 81 +17 +17 1017.2 1019.4
03 27.06 Ю 1 20 км ясно +21.2 +14.3 65 +24 +27 комфорт 1017.2 1019.3 +15.4
06 27.06 Ю 4 20 км ясно +27.8 +6.9 27 +27 +36 жарко 1017.2 1019.2
09 27.06 ЮВ 7-11
{11}
20 км ясно +29.5 +7.5 25 +29 +34 жарко 1016.2 1018.3
12 27.06 Ю 5
{11}
20 км 1/0
[Ci fib]
+30.1 +8.9 27 +30 +35 жарко 1014.5 1016.5
15 27.06 ЮВ 4 20 км 8/0
[Ci fib]
+27.9 +11.9 37 +29 +30 жарко 1013.6 1015.7 +30.5
18 27.06 ЮВ 3 10 км 8/0
[Ci fib]
+22.4 +15.2 64 +26 +26 жарко 1014.2 1016.3

 

Местоположение метеостанции Досанг (Астраханская область, Россия): широта 46.92 долгота 47.93 высота над уровнем моря -19 м.

В архиве по умолчанию представлена погода в Досанге за последнюю неделю. Архивные данные за месяц целиком и за предыдущие месяцы, начиная с января 2011 года, Вы можете получить, выбрав интересующий диапазон дат из раскрывающегося списка и нажав кнопку "Ввод!".

Внимание! Время в таблицах - всемирное. Для получения местного времени необходимо прибавить поправку, которая в Досанге равна 4 ч.

Смотрите также архив погоды в соседних городах и на ближайших метеорологических станциях:

Погода в Астрахани (Астраханская область, Россия) (71 км)
Погода в Харабали (Астраханская область, Россия) (74 км)
Погода в Зеленге (Астраханская область, Россия) (98 км)
Погода в Ганюшкино (Атырауская область, Казахстан) (108 км)
Погода в Юсте (Калмыкия, Россия) (124 км)
Погода в Жанауштогане (Атырауская область, Казахстан) (127 км)
Погода в Лимане (Астраханская область, Россия) (136 км)
Погода в Утте (Калмыкия, Россия) (158 км)
Погода в Исатай (Атырауская область, Казахстан) (163 км)
Погода в Верхнем Баскунчаке (Астраханская область, Россия) (170 км)

Пояснения к столбцам:

Ветер - указаны скорость ветра в м/с - средняя за 10 мин, порывы в срок и между сроками (в фигурных скобках) и направление, откуда дует ветер: С - северный, СВ - северо-восточный, В - восточный, ЮВ - юго-восточный, Ю - южный, ЮЗ - юго-западный, З - западный, СЗ - северо-западный.
Видимость - горизонтальная дальность видимости в метрах или километрах. При видимости от 1 до 10 км при отсутствии осадков обычно наблюдается дымка, при ухудшении видимости до 1 км и менее - туман. В сухую погоду видимость может ухудшаться дымом, пылью или мглою.
Явления - указаны атмосферные явления, наблюдавшиеся в срок или в последний час перед сроком; фигурными скобками обозначены явления, наблюдавшиеся между сроками (за 1-3 часа до срока); квадратными скобками обозначены град или гололедные отложения с указанием их диаметра в мм.
Облачность - указаны через наклонную черту общая и нижняя облачность в баллах и высота нижней границы облаков в метрах; квадратными скобками обозначены формы облаков: Ci - перистые, Cs - перисто-слоистые, Cc - перисто-кучевые, Ac - высококучевые, As - высокослоистые, Sc - слоисто-кучевые, Ns - слоисто-дождевые, Cu - кучевые, Cb - кучево-дождевые. Подробнее классификацию облаков см. в Атласе облаков (PDF).
T - Температура воздуха - температура, измеренная на высоте 2 м над землей.
Td - Температура точки росы - температура, при понижении до которой содержащийся в воздухе водяной пар достигнет насыщения.
f - Относительная влажность воздуха - влажноcть воздуха, измеренная на высоте 2 м над землей.
Te - Эффективная температура - температура, которую ощущает одетый по сезону человек в тени. Характеристика душности погоды. При расчете учитывается влияние влажности воздуха и скорости ветра на теплоощущения человека.
Tes - Эффективная температура на солнце - температура, которую ощущает человек, с поправкой на солнечный нагрев. Характеристика знойности погоды. Зависит от высоты солнца над горизонтом, облачности и скорости ветра. Ночью, в пасмурную погоду, а также при ветре 12 м/с и более поправка равна нулю.
P - Атмосферное давление - приведенное к уровню моря атмосферное давление.
Po - Атмосферное давление - измеренное на уровне метеостанции атмосферное давление.
Tmin - Минимальная температура - минимум температуры воздуха на высоте 2 м над землей.
Tmax - Максимальная температура - максимум температуры воздуха на высоте 2 м над землей.
R - Количество осадков - Количество выпавших осадков за период времени, мм. При наведении курсора мыши на число - период времени, за который выпало указанное количество осадков.
R24 - Количество осадков - Количество выпавших осадков за 24 часа, мм.
S - Снежный покров - Высота снежного покрова, см. При наведении курсора мыши на число - состояние снежного покрова и степень покрытия местности в баллах.